ACA404 CYYZ-CYUL

Flight info

Callsign ACA404
Flight time 0h 48m
Altitude 33000
Route DEDKI5 MIGLO HABBS7
Aircraft B77W/H-SDE1E2E3FGHIJ2J3J4J5M1RWXY/LB1D1

Departure

Time 2026-05-04 22:59
Airport Toronto Pearson International Airport (CYYZ)

Arrival

Time 2026-05-04 23:47
Airport Montreal / Pierre Elliott Trudeau International Airport (CYUL)
Time Latitude Longitude Altitude Speed Heading
2026-05-04 22:27 43.67695 -79.61417 566 ft 0 kts 91°
2026-05-04 22:44 43.67695 -79.61418 566 ft 1 kts 91°
2026-05-04 22:44 43.67695 -79.61451 571 ft 4 kts 91°
2026-05-04 22:44 43.67696 -79.61489 573 ft 4 kts 91°
2026-05-04 22:44 43.67697 -79.61520 572 ft 2 kts 91°
2026-05-04 22:45 43.67698 -79.61555 566 ft 4 kts 87°
2026-05-04 22:45 43.67669 -79.61596 571 ft 4 kts 348°
2026-05-04 22:45 43.67651 -79.61577 576 ft 4 kts 303°
2026-05-04 22:46 43.67637 -79.61552 570 ft 4 kts 315°
2026-05-04 22:46 43.67617 -79.61526 576 ft 4 kts 317°
2026-05-04 22:46 43.67601 -79.61504 576 ft 1 kts 316°
2026-05-04 22:46 43.67600 -79.61504 576 ft 0 kts 316°
2026-05-04 22:50 43.67623 -79.61534 576 ft 9 kts 316°
2026-05-04 22:50 43.67656 -79.61601 569 ft 9 kts 278°
2026-05-04 22:50 43.67630 -79.61675 575 ft 9 kts 225°
2026-05-04 22:51 43.67583 -79.61729 577 ft 9 kts 202°
2026-05-04 22:51 43.67525 -79.61707 579 ft 9 kts 150°
2026-05-04 22:51 43.67476 -79.61654 576 ft 9 kts 140°
2026-05-04 22:51 43.67429 -79.61595 577 ft 9 kts 138°
2026-05-04 22:52 43.67382 -79.61535 572 ft 9 kts 137°
2026-05-04 22:52 43.67332 -79.61472 575 ft 11 kts 137°
2026-05-04 22:52 43.67266 -79.61388 574 ft 13 kts 136°
2026-05-04 22:52 43.67230 -79.61290 574 ft 12 kts 78°
2026-05-04 22:53 43.67279 -79.61179 572 ft 15 kts 53°
2026-05-04 22:53 43.67342 -79.61063 572 ft 15 kts 53°
2026-05-04 22:53 43.67406 -79.60946 569 ft 15 kts 53°
2026-05-04 22:53 43.67472 -79.60829 570 ft 16 kts 49°
2026-05-04 22:54 43.67547 -79.60719 574 ft 18 kts 46°
2026-05-04 22:54 43.67653 -79.60566 573 ft 19 kts 47°
2026-05-04 22:54 43.67744 -79.60433 575 ft 19 kts 47°
2026-05-04 22:54 43.67834 -79.60301 570 ft 19 kts 46°
2026-05-04 22:55 43.67922 -79.60175 575 ft 18 kts 46°
2026-05-04 22:55 43.67987 -79.60082 574 ft 12 kts 46°
2026-05-04 22:55 43.68041 -79.60005 572 ft 10 kts 46°
2026-05-04 22:55 43.68074 -79.59920 574 ft 10 kts 93°
2026-05-04 22:56 43.68038 -79.59838 570 ft 7 kts 134°
2026-05-04 22:56 43.68011 -79.59799 573 ft 0 kts 135°
2026-05-04 22:57 43.68004 -79.59790 574 ft 9 kts 135°
2026-05-04 22:57 43.67936 -79.59728 570 ft 12 kts 178°
2026-05-04 22:57 43.67877 -79.59769 573 ft 8 kts 224°
2026-05-04 22:57 43.67873 -79.59775 572 ft 0 kts 225°
2026-05-04 22:58 43.67866 -79.59786 574 ft 13 kts 225°
2026-05-04 22:58 43.67593 -79.60178 573 ft 98 kts 226°
2026-05-04 22:58 43.66950 -79.61111 597 ft 164 kts 226°
2026-05-04 22:58 43.66153 -79.62300 1153 ft 176 kts 227°
2026-05-04 22:59 43.65360 -79.63495 2223 ft 166 kts 226°
2026-05-04 22:59 43.64571 -79.64640 3113 ft 164 kts 226°
2026-05-04 22:59 43.63799 -79.65785 3940 ft 163 kts 229°
2026-05-04 22:59 43.63018 -79.67004 4499 ft 182 kts 228°
2026-05-04 23:00 43.62056 -79.68397 4752 ft 217 kts 227°
2026-05-04 23:00 43.60962 -79.69961 5367 ft 233 kts 227°
2026-05-04 23:00 43.59819 -79.71631 6136 ft 244 kts 228°
2026-05-04 23:00 43.58593 -79.73287 7030 ft 247 kts 223°
2026-05-04 23:01 43.57064 -79.74431 7875 ft 260 kts 198°
2026-05-04 23:01 43.55219 -79.74421 8794 ft 276 kts 171°
2026-05-04 23:01 43.53454 -79.73206 9707 ft 292 kts 148°
2026-05-04 23:01 43.51906 -79.71294 10420 ft 306 kts 139°
2026-05-04 23:02 43.50706 -79.68679 10697 ft 348 kts 112°
2026-05-04 23:02 43.50351 -79.65236 10914 ft 378 kts 93°
2026-05-04 23:02 43.50328 -79.61471 11278 ft 405 kts 90°
2026-05-04 23:02 43.50588 -79.57551 12160 ft 418 kts 83°
2026-05-04 23:03 43.51159 -79.53589 13207 ft 426 kts 75°
2026-05-04 23:03 43.51956 -79.49612 14192 ft 433 kts 74°
2026-05-04 23:03 43.52764 -79.45596 15199 ft 439 kts 74°
2026-05-04 23:03 43.53569 -79.41504 16245 ft 443 kts 74°
2026-05-04 23:04 43.54444 -79.37406 17298 ft 449 kts 72°
2026-05-04 23:04 43.55381 -79.33271 18208 ft 456 kts 71°
2026-05-04 23:04 43.56348 -79.29075 19048 ft 462 kts 71°
2026-05-04 23:04 43.57311 -79.24877 19924 ft 467 kts 71°
2026-05-04 23:05 43.58285 -79.20581 20797 ft 472 kts 71°
2026-05-04 23:05 43.59256 -79.16258 21645 ft 477 kts 71°
2026-05-04 23:05 43.60237 -79.11850 22460 ft 483 kts 71°
2026-05-04 23:05 43.61229 -79.07379 22709 ft 491 kts 71°
2026-05-04 23:06 43.62232 -79.02837 23289 ft 496 kts 71°
2026-05-04 23:06 43.63234 -78.98287 24129 ft 496 kts 71°
2026-05-04 23:06 43.64235 -78.93734 24936 ft 497 kts 71°
2026-05-04 23:06 43.65241 -78.89158 25606 ft 501 kts 71°
2026-05-04 23:07 43.66181 -78.84871 26148 ft 506 kts 71°
2026-05-04 23:07 43.67205 -78.80197 26737 ft 511 kts 71°
2026-05-04 23:07 43.68238 -78.75473 27340 ft 515 kts 71°
2026-05-04 23:07 43.69329 -78.70743 27906 ft 518 kts 68°
2026-05-04 23:08 43.70682 -78.66114 28474 ft 520 kts 64°
2026-05-04 23:08 43.72114 -78.61523 29123 ft 521 kts 63°
2026-05-04 23:08 43.73558 -78.56938 29899 ft 518 kts 63°
2026-05-04 23:08 43.74988 -78.52381 30612 ft 515 kts 63°
2026-05-04 23:09 43.76399 -78.47847 31300 ft 513 kts 63°
2026-05-04 23:09 43.77795 -78.43318 31934 ft 511 kts 63°
2026-05-04 23:09 43.79182 -78.38787 32537 ft 511 kts 63°
2026-05-04 23:09 43.80572 -78.34233 32700 ft 515 kts 63°
2026-05-04 23:10 43.83322 -78.25178 32689 ft 512 kts 63°
2026-05-04 23:10 43.86073 -78.16088 32687 ft 512 kts 63°
2026-05-04 23:11 43.88822 -78.06986 32690 ft 513 kts 63°
2026-05-04 23:11 43.91569 -77.97854 32686 ft 514 kts 63°
2026-05-04 23:12 43.94313 -77.88698 32694 ft 513 kts 63°
2026-05-04 23:12 43.97041 -77.79563 32699 ft 512 kts 63°
2026-05-04 23:13 43.99755 -77.70443 32681 ft 511 kts 63°
2026-05-04 23:13 44.02459 -77.61325 32676 ft 510 kts 63°
2026-05-04 23:14 44.05155 -77.52204 32679 ft 510 kts 63°
2026-05-04 23:14 44.07937 -77.43179 32675 ft 506 kts 58°
2026-05-04 23:15 44.11551 -77.34893 32695 ft 499 kts 51°
2026-05-04 23:15 44.15383 -77.26821 32699 ft 500 kts 51°
2026-05-04 23:16 44.19184 -77.18716 32707 ft 500 kts 51°
2026-05-04 23:16 44.22952 -77.10576 32709 ft 500 kts 51°
2026-05-04 23:17 44.26682 -77.02472 32720 ft 500 kts 52°
2026-05-04 23:17 44.30433 -76.94305 32706 ft 500 kts 52°
2026-05-04 23:18 44.34183 -76.86122 32706 ft 500 kts 52°
2026-05-04 23:18 44.37923 -76.77937 32719 ft 500 kts 52°
2026-05-04 23:19 44.41661 -76.69732 32732 ft 499 kts 52°
2026-05-04 23:19 44.45387 -76.61534 32714 ft 499 kts 52°
2026-05-04 23:20 44.49110 -76.53315 32707 ft 499 kts 52°
2026-05-04 23:20 44.52825 -76.45091 32698 ft 500 kts 52°
2026-05-04 23:21 44.56538 -76.36849 32703 ft 499 kts 52°
2026-05-04 23:21 44.60244 -76.28598 32714 ft 500 kts 52°
2026-05-04 23:22 44.63923 -76.20308 32695 ft 502 kts 55°
2026-05-04 23:22 44.66714 -76.11229 32702 ft 510 kts 65°
2026-05-04 23:23 44.69214 -76.01915 32686 ft 509 kts 63°
2026-05-04 23:23 44.71873 -75.92704 32707 ft 510 kts 64°
2026-05-04 23:24 44.74337 -75.83404 32695 ft 511 kts 65°
2026-05-04 23:24 44.75568 -75.78682 31926 ft 521 kts 65°
2026-05-04 23:24 44.76828 -75.73881 31057 ft 523 kts 65°
2026-05-04 23:25 44.78090 -75.69093 30258 ft 521 kts 65°
2026-05-04 23:25 44.79343 -75.64347 29662 ft 514 kts 65°
2026-05-04 23:25 44.80581 -75.59660 28983 ft 508 kts 65°
2026-05-04 23:25 44.81806 -75.55023 28371 ft 502 kts 65°
2026-05-04 23:26 44.83016 -75.50432 27773 ft 497 kts 66°
2026-05-04 23:26 44.84211 -75.45899 27195 ft 491 kts 65°
2026-05-04 23:26 44.85439 -75.41432 26596 ft 486 kts 64°
2026-05-04 23:26 44.86690 -75.37031 26014 ft 482 kts 64°
2026-05-04 23:27 44.87940 -75.32679 25445 ft 477 kts 64°
2026-05-04 23:27 44.89182 -75.28342 24882 ft 474 kts 64°
2026-05-04 23:27 44.90402 -75.24050 24326 ft 470 kts 64°
2026-05-04 23:27 44.91608 -75.19778 23774 ft 467 kts 65°
2026-05-04 23:28 44.92801 -75.15531 23208 ft 465 kts 65°
2026-05-04 23:28 44.93986 -75.11297 22572 ft 462 kts 65°
2026-05-04 23:28 44.95161 -75.07095 21988 ft 459 kts 65°
2026-05-04 23:28 44.96327 -75.02920 21443 ft 454 kts 65°
2026-05-04 23:29 44.97480 -74.98784 20912 ft 451 kts 65°
2026-05-04 23:29 44.98634 -74.94685 20393 ft 447 kts 64°
2026-05-04 23:29 44.99996 -74.90773 19848 ft 442 kts 58°
2026-05-04 23:29 45.01524 -74.87030 19304 ft 438 kts 56°
2026-05-04 23:30 45.03087 -74.83348 18775 ft 436 kts 56°
2026-05-04 23:30 45.04628 -74.79667 18257 ft 434 kts 56°
2026-05-04 23:30 45.06132 -74.75981 17692 ft 433 kts 57°
2026-05-04 23:30 45.07607 -74.72293 17107 ft 431 kts 58°
2026-05-04 23:31 45.09075 -74.68585 16671 ft 429 kts 58°
2026-05-04 23:31 45.10531 -74.64899 16329 ft 427 kts 58°
2026-05-04 23:31 45.11977 -74.61240 15801 ft 425 kts 58°
2026-05-04 23:31 45.13460 -74.57711 15280 ft 421 kts 55°
2026-05-04 23:32 45.15032 -74.54178 14755 ft 417 kts 54°
2026-05-04 23:32 45.16550 -74.50796 14240 ft 414 kts 55°
2026-05-04 23:32 45.18061 -74.47383 13742 ft 411 kts 55°
2026-05-04 23:32 45.19561 -74.43954 13191 ft 408 kts 56°
2026-05-04 23:33 45.21046 -74.40542 12653 ft 405 kts 56°
2026-05-04 23:33 45.22508 -74.37163 12125 ft 401 kts 56°
2026-05-04 23:33 45.23957 -74.33808 11620 ft 397 kts 56°
2026-05-04 23:33 45.25396 -74.30472 11123 ft 394 kts 56°
2026-05-04 23:34 45.26816 -74.27178 10753 ft 387 kts 56°
2026-05-04 23:34 45.28197 -74.23968 10600 ft 372 kts 56°
2026-05-04 23:34 45.29500 -74.20933 10434 ft 349 kts 56°
2026-05-04 23:34 45.30740 -74.18050 10302 ft 339 kts 56°
2026-05-04 23:35 45.31953 -74.15229 10164 ft 330 kts 56°
2026-05-04 23:35 45.33133 -74.12483 10031 ft 321 kts 56°
2026-05-04 23:35 45.34283 -74.09801 9810 ft 317 kts 56°
2026-05-04 23:35 45.35429 -74.07126 9488 ft 316 kts 56°
2026-05-04 23:36 45.36687 -74.04604 9131 ft 309 kts 43°
2026-05-04 23:36 45.38233 -74.02526 8830 ft 304 kts 37°
2026-05-04 23:36 45.39839 -74.00578 8526 ft 303 kts 36°
2026-05-04 23:36 45.41429 -73.98615 8198 ft 302 kts 37°
2026-05-04 23:37 45.42993 -73.96622 7906 ft 302 kts 38°
2026-05-04 23:37 45.44532 -73.94633 7603 ft 303 kts 38°
2026-05-04 23:37 45.46087 -73.92610 7271 ft 303 kts 38°
2026-05-04 23:37 45.47647 -73.90577 6964 ft 303 kts 38°
2026-05-04 23:38 45.49199 -73.88552 6641 ft 303 kts 38°
2026-05-04 23:38 45.50749 -73.86528 6321 ft 302 kts 38°
2026-05-04 23:38 45.51796 -73.85158 6106 ft 302 kts 38°
2026-05-04 23:38 45.53845 -73.82479 5665 ft 302 kts 38°
2026-05-04 23:39 45.54889 -73.81113 5426 ft 302 kts 39°
2026-05-04 23:39 45.56432 -73.79092 5116 ft 300 kts 39°
2026-05-04 23:39 45.57937 -73.77117 4799 ft 288 kts 39°
2026-05-04 23:39 45.59384 -73.75216 4480 ft 277 kts 39°
2026-05-04 23:40 45.60771 -73.73395 4281 ft 262 kts 39°
2026-05-04 23:40 45.62065 -73.71693 4177 ft 244 kts 39°
2026-05-04 23:40 45.63273 -73.70103 4086 ft 231 kts 39°
2026-05-04 23:40 45.64491 -73.68508 4044 ft 246 kts 39°
2026-05-04 23:41 45.65681 -73.66743 3982 ft 249 kts 57°
2026-05-04 23:41 45.66224 -73.64411 4019 ft 251 kts 90°
2026-05-04 23:41 45.65912 -73.62100 4014 ft 244 kts 123°
2026-05-04 23:41 45.64958 -73.60158 4009 ft 237 kts 135°
2026-05-04 23:42 45.63872 -73.58373 3885 ft 236 kts 145°
2026-05-04 23:42 45.62474 -73.57343 3650 ft 219 kts 178°
2026-05-04 23:42 45.61086 -73.57578 3388 ft 188 kts 213°
2026-05-04 23:42 45.60079 -73.58587 3187 ft 171 kts 219°
2026-05-04 23:43 45.59129 -73.59563 3027 ft 171 kts 220°
2026-05-04 23:43 45.58190 -73.60668 2760 ft 172 kts 223°
2026-05-04 23:43 45.57309 -73.61799 2514 ft 169 kts 224°
2026-05-04 23:43 45.56453 -73.62918 2317 ft 160 kts 224°
2026-05-04 23:44 45.55650 -73.63975 2096 ft 163 kts 224°
2026-05-04 23:44 45.54802 -73.65092 1874 ft 169 kts 224°
2026-05-04 23:44 45.53957 -73.66202 1636 ft 159 kts 223°
2026-05-04 23:44 45.53170 -73.67237 1440 ft 150 kts 223°
2026-05-04 23:45 45.52437 -73.68199 1225 ft 138 kts 223°
2026-05-04 23:45 45.51745 -73.69108 1073 ft 136 kts 223°
2026-05-04 23:45 45.51048 -73.70031 912 ft 138 kts 223°
2026-05-04 23:45 45.50339 -73.70975 713 ft 140 kts 222°
2026-05-04 23:46 45.49618 -73.71909 525 ft 139 kts 221°
2026-05-04 23:46 45.48905 -73.72842 321 ft 139 kts 222°
2026-05-04 23:46 45.48192 -73.73778 140 ft 140 kts 221°
2026-05-04 23:46 45.47528 -73.74644 113 ft 112 kts 223°
2026-05-04 23:47 45.47071 -73.75243 112 ft 67 kts 222°
2026-05-04 23:47 45.46836 -73.75536 111 ft 27 kts 208°
2026-05-04 23:47 45.46669 -73.75609 108 ft 21 kts 192°
2026-05-04 23:47 45.46552 -73.75647 110 ft 14 kts 193°
2026-05-04 23:48 45.46457 -73.75678 109 ft 14 kts 193°
2026-05-04 23:48 45.46368 -73.75707 108 ft 11 kts 193°
2026-05-04 23:48 45.46312 -73.75723 109 ft 8 kts 188°
2026-05-04 23:48 45.46255 -73.75727 109 ft 9 kts 180°
2026-05-04 23:49 45.46184 -73.75725 107 ft 10 kts 178°
2026-05-04 23:49 45.46107 -73.75720 107 ft 10 kts 172°
2026-05-04 23:49 45.46065 -73.75654 109 ft 10 kts 108°
2026-05-04 23:49 45.46063 -73.75556 109 ft 10 kts 87°
2026-05-04 23:50 45.46066 -73.75476 109 ft 8 kts 87°
2026-05-04 23:50 45.46062 -73.75393 109 ft 9 kts 105°
2026-05-04 23:50 45.46037 -73.75315 110 ft 9 kts 116°
2026-05-04 23:50 45.46013 -73.75235 110 ft 7 kts 107°
2026-05-04 23:51 45.46009 -73.75168 110 ft 7 kts 91°
2026-05-04 23:51 45.46008 -73.75102 110 ft 4 kts 95°
2026-05-04 23:51 45.45997 -73.75063 110 ft 4 kts 134°
2026-05-04 23:51 45.45970 -73.75049 110 ft 4 kts 165°
2026-05-04 23:52 45.45954 -73.75047 110 ft 1 kts 175°
2026-05-04 23:52 45.45942 -73.75045 110 ft 2 kts 176°
2026-05-04 23:52 45.45940 -73.75045 110 ft 0 kts 176°